Location: Arena
(42.5007°N, 9.4650°E)
Time: 02:22:04
(UTC+00:00)

ATLAS 5 CENTAUR R/B - Pass Details

Date: 09 April 2020
Orbit: 543 x 1116 km, 63.4° (Epoch: 01 May)

Event Time Altitude Azimuth Distance (km) Brightness Sun altitude
Rises 19:58:36 0° 248° (WSW) 2,739 5.4 -21.3°
Reaches altitude 10° 20:01:01 10° 262° (W) 1,889 4.7 -21.7°
Maximum altitude 20:04:35 26° 320° (NW) 1,225 3.8 -22.2°
Drops below altitude 10° 20:08:32 10° 17° (NNE) 2,104 4.5 -22.8°
Sets 20:11:22 0° 30° (NNE) 3,125 5.3 -23.2°
